Regional Weather Roundup
Issued by NWS Cleveland, OH

Home | Current Version | Previous Version | Graphics & Text | Print | Product List | Glossary On
Versions: 1 2 3 4 5 6 7 8 9 10 11 12 13 14 15 16 17 18 19 20 21 22 23 24 25 26 27 28 29 30 31 32 33 34 35 36 37 38 39 40 41 42 43 44 45 46 47 48 49 50
000
ASUS41 KCLE 210610
RWRCLE
OHIO REGIONAL WEATHER ROUNDUP
NATIONAL WEATHER SERVICE CLEVELAND, OH
200 AM EDT FRI JUL 21 2017

NOTE: "FAIR" INDICATES FEW OR NO CLOUDS BELOW 12,000 FEET WITH NO
SIGNIFICANT WEATHER AND/OR OBSTRUCTIONS TO VISIBILITY.

OHZ001>008-015>018-024>027-034-035-043-044-210700-
   NORTHWEST OHIO

CITY           SKY/WX    TMP DP  RH WIND       PRES   REMARKS
DEFIANCE       CLEAR    N/A N/A N/A CALM      29.95F
FINDLAY        CLEAR     75  71  87 CALM      29.95S
TOLEDO EXPRESS MOCLDY    72  72 100 CALM      29.95S
TOLEDO EXEC    CLEAR     75  73  93 CALM      29.96S
LIMA           CLEAR     77  75  93 S7        29.98S
$$

OHZ009>014-019>023-028>033-038-089-210700-
   NORTHEAST OHIO

CITY           SKY/WX    TMP DP  RH WIND       PRES   REMARKS
CLE-HOPKINS    PTCLDY    76  71  85 SW5       29.99S
CLE-LAKEFRONT  CLEAR     77  70  79 SW9       29.95S
CUY CO. ARPT   NOT AVBL
LORAIN-ELYRIA  CLEAR     73  66  78 CALM      29.98S
ASHTABULA      MOCLDY    69  69 100 CALM      29.98F
AKRON-CANTON   CLEAR     75  70  84 SW3       30.00S
WOOSTER        CLEAR     70  69  97 CALM      30.01S
MANSFIELD      PTCLDY    75  72  90 CALM      30.00F
YOUNGSTOWN     MOCLDY    72  69  90 S3        29.99S
$$

OHZ042-051>053-060>062-070>072-077>081-210700-
  SOUTHWEST OHIO

CITY           SKY/WX    TMP DP  RH WIND       PRES   REMARKS
CINC-COVINGTON CLEAR     80  74  81 SW7       30.01F
CINC-LUNKEN    MOCLDY    77  75  93 CALM      30.00F
HAMILTON       CLOUDY    80  74  81 W3        30.00F
DAYTON         CLOUDY    79  73  82 SW10      30.01S
WRIGHT-PAT AFB CLOUDY    79  76  90 SW8       29.99S
DAYTON GENERAL CLOUDY    81  72  74 SW6       30.00S
WILMINGTON     CLOUDY    77  75  93 SW6       30.01S
$$

OHZ036-037-039>041-045>050-054>059-063>069-073>076-082>088-210700-
  CENTRAL AND SOUTHEAST OHIO

CITY           SKY/WX    TMP DP  RH WIND       PRES   REMARKS
COLUMBUS       CLOUDY    79  76  90 S3        29.98F
OSU AIRPORT    CLOUDY    79  77  94 S5        29.99S
BOLTON FIELD   CLOUDY    76  75  98 S3        30.00S FOG
RICKENBACK AFB CLOUDY    77  76  98 S7        29.98S
NEWARK         PTCLDY    76  74  93 SW3       29.99S
MARION         CLEAR     76  72  87 SW5       29.99S
LANCASTER      PTCLDY    77  75  93 CALM      30.00S
ZANESVILLE     PTCLDY    75  71  87 SE3       30.00F
NEW PHILLY     NOT AVBL
$$



USA.gov is the U.S. government's official web portal to all federal, state and local government web resources and services.